Dewpoint
57 57 57 58 57 57 56 54 52 50 52 51 52 53 53 52 52 50 51 52 52 52 52 53 52 53 54 54 55 56 57 56 55 55 55 56 56 56
58 57 57 58 58 57 56 55 52 50 48 52 53 52 52 50 49 49 50 48 48 48 49 50 51 51 52 52 53 54 56 55 55 55 54 54 55 55
58 58 57 57 57 57 57 55 54 51 49 52 51 50 49 48 46 46 46 45 44 46 47 47 48 50 50 50 51 53 53 55 54 54 53 54 54 54
57 58 57 57 57 57 56 55 54 53 52 51 49 47 45 44 43 42 43 43 41 42 44 45 46 48 49 49 49 50 51 52 53 53 52 53 53 52
58 58 57 57 56 56 56 55 54 53 51 49 46 44 44 42 41 41 41 41 39 40 41 42 44 45 47 48 48 49 49 51 51 52 53 52 53 50
58 58 57 57 57 56 55 54 52 51 48 47 44 43 41 41 40 39 38 39 37 38 38 40 41 42 44 46 47 47 48 50 51 50 50 52 52 48
58 58 57 57 56 55 54 53 51 50 46 44 41 41 40 39 38 38 37 37 36 36 36 36 36 37 41 43 45 45 47 48 49 48 48 50 49 47
57 57 56 55 55 54 53 52 50 48 45 42 40 39 38 38 38 37 36 35 33 35 35 35 34 35 37 40 44 45 45 46 46 45 45 45 46 45
57 56 53 53 53 52 51 49 47 46 45 42 40 38 37 37 38 36 35 35 35 35 34 34 33 34 34 36 40 42 44 44 44 44 42 41 41 42
56 54 53 51 51 49 47 46 46 45 44 42 41 39 38 38 37 36 35 34 35 34 33 33 33 33 32 32 35 39 41 43 43 42 42 41 40 39
51 51 52 50 48 48 46 43 42 42 43 42 40 39 39 38 37 35 34 33 31 32 32 33 32 31 30 31 31 35 38 40 42 42 41 41 40 39
47 47 47 46 46 45 45 43 42 40 39 39 39 39 38 37 38 34 33 30 30 29 32 32 31 28 30 30 29 29 32 36 39 40 41 42 39 37
45 44 45 46 45 45 44 42 41 38 38 37 36 34 33 33 33 31 32 29 28 26 31 30 28 26 26 26 28 28 28 29 30 32 34 38 39 38
44 44 45 45 45 45 44 41 39 38 35 33 32 32 30 30 28 27 28 30 29 26 31 29 28 27 27 28 26 27 27 27 28 29 30 33 35 38
42 43 42 44 45 44 42 41 40 36 34 32 31 31 31 29 28 26 27 27 27 29 29 28 28 28 28 27 25 26 25 25 26 28 29 31 31 33
42 41 42 42 43 42 41 41 37 35 34 33 32 31 29 28 27 26 26 26 23 23 27 28 27 27 25 26 26 25 24 21 25 27 27 27 29 30
40 40 39 39 39 38 38 38 35 34 34 33 32 30 28 27 26 26 24 24 20 21 24 27 27 27 26 24 22 23 23 22 23 23 26 26 27 28
40 37 37 38 38 38 38 37 36 35 34 32 32 30 28 26 26 26 25 23 21 21 21 23 25 25 25 23 27 23 21 22 22 23 25 25 25 26
39 38 37 37 37 37 37 37 36 36 35 34 32 31 30 28 28 26 25 24 23 22 22 23 24 24 20 13 18 27 22 22 25 25 26 26 25 26
38 38 37 37 37 36 36 36 36 34 34 34 33 32 31 30 30 27 27 26 25 24 24 23 22 23 21 16 16 23 28 24 25 24 24 25 26 27
35 36 37 37 37 36 36 35 35 34 34 34 33 33 32 31 31 30 29 28 27 26 26 25 24 25 24 23 22 22 23 27 27 24 23 23 22 24
33 35 36 37 36 36 35 34 34 34 34 33 32 32 32 32 32 31 30 30 30 28 27 27 27 26 24 24 23 22 22 24 24 26 28 25 20 11
31 33 34 35 35 35 33 32 32 32 32 32 32 32 32 31 32 32 31 30 30 29 27 26 25 25 25 25 24 24 24 24 24 24 23 26 29 29
Wind_Speed
21 21 18 15 13 11 8 8 9 10 15 7 5 5 5 4 4 3 1 6 6 5 4 5 5 7 9 9 10 14 8 4 2 2 4 5 9 6
17 19 17 13 15 13 12 10 7 9 6 4 5 5 7 6 6 6 4 4 4 6 6 6 7 7 8 9 9 13 8 5 5 3 3 2 3 4
17 19 20 16 17 16 12 11 11 8 7 4 3 5 5 5 2 3 0 2 2 6 8 7 7 7 6 8 9 9 9 7 5 4 4 1 7 9
23 20 20 16 18 17 16 17 15 10 7 13 5 5 3 3 2 1 1 2 4 4 6 7 6 6 7 6 5 7 8 8 5 2 1 4 9 9
20 20 18 19 18 16 17 16 13 12 8 9 8 3 2 3 0 1 3 1 4 6 5 6 6 6 6 6 6 5 6 5 5 4 5 6 11 10
19 18 18 21 21 21 19 18 14 13 10 11 9 6 4 3 2 4 8 3 3 3 3 3 5 4 4 4 6 5 4 6 6 4 2 5 11 11
17 18 19 21 24 23 21 19 18 16 14 13 10 7 7 7 9 6 6 3 2 2 3 3 4 4 2 2 1 2 1 2 5 6 5 3 9 9
20 18 17 22 24 25 24 22 23 24 21 15 11 10 11 9 8 11 7 3 2 1 4 6 3 4 3 2 5 1 1 4 5 5 5 6 8 8
21 21 19 16 18 17 15 14 11 12 13 15 16 12 13 15 13 10 7 4 5 2 2 5 2 5 3 3 4 3 1 2 3 4 3 4 5 5
18 20 21 19 18 21 21 19 18 13 10 13 12 16 11 14 10 6 7 4 2 3 2 4 3 4 4 3 4 5 4 1 3 4 5 4 4 4
13 14 19 19 20 24 22 21 15 14 11 11 13 15 15 16 14 12 9 7 6 5 5 3 2 4 3 4 5 5 5 4 2 4 6 7 6 5
12 14 13 17 24 24 23 26 26 23 20 15 13 15 16 15 17 11 13 11 5 4 6 5 1 2 2 0 2 2 2 4 4 5 6 6 8 6
10 12 13 23 32 31 25 24 23 18 20 17 16 12 11 12 10 9 10 8 8 5 3 4 2 1 1 3 2 1 2 1 1 3 6 8 9 9
11 10 11 21 26 26 23 17 15 22 15 16 15 13 12 13 11 8 6 4 3 2 6 3 2 3 1 2 3 4 2 2 1 2 4 7 7 10
12 11 9 14 20 18 17 18 25 19 20 17 18 16 15 13 11 9 6 4 2 2 4 4 4 3 4 4 3 3 5 2 3 2 3 4 4 4
13 11 11 13 18 15 18 21 16 22 23 20 17 13 13 13 13 10 9 8 5 3 3 4 4 5 5 8 7 7 6 4 3 2 2 5 5 5
11 8 9 10 14 14 13 12 12 13 17 19 16 16 13 14 13 13 10 9 7 6 6 5 6 7 7 6 6 10 9 7 7 8 4 9 8 7
12 13 15 16 18 20 24 23 20 20 16 14 15 18 19 18 16 11 7 10 12 10 8 7 7 3 3 9 16 8 5 6 5 4 4 5 10 7
15 16 17 17 19 18 20 22 24 23 20 20 19 17 16 16 18 15 15 11 12 11 9 8 8 6 6 5 1 13 7 3 0 2 4 7 7 9
17 19 20 19 19 19 19 19 17 18 20 19 19 19 18 18 17 17 17 15 14 11 10 8 9 13 12 5 1 1 12 8 4 3 4 5 9 14
17 18 18 17 17 16 16 15 16 18 19 20 18 18 18 18 16 15 15 16 14 12 12 14 16 13 7 5 4 3 2 9 9 7 3 5 4 3
16 18 18 16 17 17 16 16 17 17 17 18 16 15 16 17 16 15 15 15 14 12 11 7 8 10 8 11 11 7 3 4 2 9 15 14 4 2
18 17 17 15 14 15 15 15 17 17 17 17 17 17 15 15 14 13 14 13 12 12 10 10 10 8 10 12 11 8 6 5 3 8 7 14 20 20
Wind_Direction
192 198 202 201 200 204 194 174 171 199 224 200 174 180 178 178 194 143 81 69 46 23 5 333 340 351 350 345 342 328 249 193 216 337 338 14 48 68
192 196 200 197 199 201 201 194 185 181 222 167 190 164 175 178 172 137 147 99 23 343 327 341 358 351 337 343 343 357 322 224 215 244 255 352 44 158
189 195 206 194 203 200 196 197 191 162 174 177 141 167 164 179 93 83 328 95 17 356 340 329 325 333 337 343 355 353 353 304 260 230 236 192 132 113
196 197 202 190 197 195 198 204 196 183 168 186 164 173 170 170 154 131 309 30 57 325 338 332 336 332 341 340 328 335 345 345 320 282 215 178 152 146
192 195 195 188 195 197 201 201 194 185 171 163 164 148 131 121 40 310 276 287 353 343 350 339 336 336 330 319 324 320 315 290 307 261 251 250 169 152
188 192 192 195 198 198 195 198 190 187 182 175 166 164 159 149 175 228 251 252 310 357 340 348 1 336 294 308 295 290 294 268 243 209 159 187 163 150
193 196 197 199 198 192 188 194 187 186 183 181 174 176 166 175 199 210 229 260 253 236 311 295 322 321 301 307 20 66 83 69 147 133 129 123 144 132
201 204 202 196 196 193 193 187 187 187 188 181 187 206 186 192 172 198 207 224 291 351 329 303 341 288 290 276 9 34 91 105 109 105 105 104 118 131
206 205 202 197 192 185 188 173 163 161 167 181 183 202 198 188 180 186 197 181 210 213 332 277 309 289 296 335 344 339 307 145 136 135 125 128 129 122
205 200 202 197 189 177 168 170 170 168 191 186 197 211 201 164 169 172 181 186 274 265 199 260 335 288 315 336 340 304 289 310 168 153 158 158 148 141
199 204 197 193 187 172 167 159 163 171 182 191 196 171 148 148 151 133 161 171 225 229 200 216 235 292 333 354 2 322 290 267 221 206 208 208 190 179
187 187 187 173 163 167 168 167 179 185 170 156 152 151 148 153 162 174 175 193 178 212 196 193 221 337 335 26 345 349 301 286 294 264 253 237 211 180
214 199 202 187 179 175 174 185 190 165 165 160 158 148 150 157 167 181 186 181 184 214 165 145 185 193 220 296 310 1 334 329 17 328 306 270 250 197
243 230 211 194 192 189 185 185 160 149 154 159 164 174 178 184 183 170 170 178 100 135 139 145 201 188 174 312 276 343 334 334 15 315 311 297 277 249
277 256 235 219 210 190 181 167 156 163 165 174 184 185 192 185 157 136 121 112 113 162 181 181 189 182 215 229 282 300 336 350 348 297 313 296 272 245
277 266 239 211 190 191 172 176 180 172 178 184 189 183 163 162 172 162 174 182 196 206 191 179 202 203 213 230 238 260 258 275 354 44 317 297 277 256
263 247 228 200 184 176 175 177 170 177 183 174 173 176 174 173 178 170 161 175 192 168 179 182 192 215 231 215 249 237 254 265 271 278 270 276 269 259
251 230 226 215 208 202 191 193 191 191 193 189 177 176 174 180 176 176 174 189 191 193 189 178 168 214 257 247 223 242 244 261 285 263 233 260 278 274
264 252 243 225 221 217 207 200 195 197 181 179 182 182 173 179 180 184 184 188 201 194 192 177 176 185 237 264 286 207 209 196 138 293 236 235 269 277
251 243 243 237 231 220 213 208 195 176 180 183 182 179 177 180 182 189 189 196 200 195 192 194 202 201 206 222 242 243 209 224 223 266 279 251 262 275
280 260 250 242 232 227 216 205 194 187 185 183 185 182 180 180 187 187 190 195 185 190 208 216 222 204 166 123 271 276 268 233 216 226 239 266 276 300
296 273 257 242 230 220 212 199 191 190 188 184 182 182 183 185 186 185 187 192 194 192 205 189 160 165 179 194 224 222 252 311 308 269 243 230 223 282
294 285 267 244 223 209 203 198 194 188 184 178 177 177 179 185 188 185 186 188 184 180 184 188 179 181 198 203 211 222 223 243 273 298 280 241 239 247